SDM6817 UNKL-USMU

Flight info

Callsign SDM6817
Flight time N/A
Altitude 34000
Route N0460F340 BASEL B938 SURIP B247 ABREN R809 TARSA W128 LUNOD
Aircraft A319/M-VGDW/C

Departure

Time N/A
Airport Krasnoyarsk International Airport (UNKL)

Arrival

Time 2026-04-27 21:59
Airport Novy Urengoy Airport (USMU)
Time Latitude Longitude Altitude Speed Heading
2026-04-27 20:20 58.87640 90.74240 34188 ft 448 kts 341°
2026-04-27 20:21 58.93759 90.71907 34193 ft 448 kts 342°
2026-04-27 20:21 58.99866 90.69574 34192 ft 447 kts 342°
2026-04-27 20:22 59.04939 90.67615 34192 ft 447 kts 342°
2026-04-27 20:22 59.11040 90.65262 34184 ft 447 kts 342°
2026-04-27 20:23 59.17133 90.62907 34180 ft 446 kts 342°
2026-04-27 20:23 59.23223 90.60553 34176 ft 446 kts 342°
2026-04-27 20:24 59.29307 90.58200 34173 ft 445 kts 342°
2026-04-27 20:24 59.35378 90.55828 34173 ft 445 kts 342°
2026-04-27 20:25 59.41448 90.53437 34160 ft 444 kts 342°
2026-04-27 20:25 59.47511 90.51047 34159 ft 444 kts 342°
2026-04-27 20:26 59.53568 90.48666 34158 ft 444 kts 342°
2026-04-27 20:26 59.59618 90.46265 34155 ft 443 kts 342°
2026-04-27 20:27 59.65664 90.43865 34156 ft 443 kts 342°
2026-04-27 20:27 59.71706 90.41454 34156 ft 443 kts 342°
2026-04-27 20:28 59.77748 90.39033 34152 ft 443 kts 342°
2026-04-27 20:28 59.82762 90.37003 34149 ft 442 kts 342°
2026-04-27 20:29 59.89810 90.34135 34149 ft 442 kts 342°
2026-04-27 20:29 59.95838 90.31698 34147 ft 442 kts 343°
2026-04-27 20:30 60.01863 90.29254 34143 ft 442 kts 343°
2026-04-27 20:30 60.07884 90.26804 34143 ft 441 kts 343°
2026-04-27 20:31 60.13904 90.24337 34145 ft 441 kts 343°
2026-04-27 20:31 60.19926 90.21870 34146 ft 441 kts 343°
2026-04-27 20:32 60.25712 90.18255 34141 ft 431 kts 328°
2026-04-27 20:32 60.30574 90.11537 34141 ft 422 kts 316°
2026-04-27 20:33 60.35179 90.04193 34135 ft 422 kts 317°
2026-04-27 20:33 60.39791 89.96857 34129 ft 422 kts 317°
2026-04-27 20:34 60.44401 89.89482 34129 ft 422 kts 317°
2026-04-27 20:34 60.48990 89.82060 34125 ft 422 kts 317°
2026-04-27 20:35 60.53584 89.74637 34119 ft 422 kts 317°
2026-04-27 20:35 60.58171 89.67190 34119 ft 422 kts 317°
2026-04-27 20:36 60.62753 89.59721 34111 ft 422 kts 317°
2026-04-27 20:36 60.67333 89.52237 34109 ft 422 kts 317°
2026-04-27 20:37 60.71907 89.44735 34109 ft 422 kts 317°
2026-04-27 20:37 60.76480 89.37192 34095 ft 422 kts 317°
2026-04-27 20:38 60.81044 89.29626 34095 ft 422 kts 317°
2026-04-27 20:38 60.85610 89.22049 34093 ft 423 kts 317°
2026-04-27 20:39 60.90146 89.14492 34090 ft 423 kts 317°
2026-04-27 20:39 60.94742 89.06821 34095 ft 423 kts 317°
2026-04-27 20:40 60.99306 88.99166 34092 ft 423 kts 317°
2026-04-27 20:40 61.03862 88.91493 34092 ft 423 kts 317°
2026-04-27 20:41 61.08379 88.83841 34089 ft 422 kts 317°
2026-04-27 20:41 61.12857 88.75999 34084 ft 419 kts 311°
2026-04-27 20:42 61.16977 88.67452 34084 ft 420 kts 311°
2026-04-27 20:42 61.21094 88.58887 34078 ft 419 kts 311°
2026-04-27 20:43 61.25203 88.50302 34076 ft 419 kts 311°
2026-04-27 20:43 61.29304 88.41699 34080 ft 419 kts 311°
2026-04-27 20:44 61.33396 88.33081 34073 ft 419 kts 311°
2026-04-27 20:44 61.37481 88.24429 34076 ft 419 kts 311°
2026-04-27 20:45 61.41558 88.15753 34071 ft 419 kts 311°
2026-04-27 20:45 61.45636 88.07066 34064 ft 419 kts 311°
2026-04-27 20:46 61.49716 87.98354 34063 ft 419 kts 311°
2026-04-27 20:46 61.53786 87.89612 34063 ft 419 kts 311°
2026-04-27 20:47 61.57844 87.80845 34061 ft 419 kts 311°
2026-04-27 20:47 61.61900 87.72044 34058 ft 419 kts 311°
2026-04-27 20:48 61.65267 87.64722 34059 ft 419 kts 311°
2026-04-27 20:48 61.70028 87.54465 34053 ft 420 kts 315°
2026-04-27 20:49 61.74520 87.46542 34050 ft 421 kts 317°
2026-04-27 20:49 61.78985 87.38658 34051 ft 421 kts 317°
2026-04-27 20:50 61.83477 87.30709 34047 ft 421 kts 317°
2026-04-27 20:50 61.87958 87.22743 34046 ft 421 kts 317°
2026-04-27 20:51 61.92441 87.14757 34048 ft 421 kts 317°
2026-04-27 20:51 61.96914 87.06750 34038 ft 420 kts 317°
2026-04-27 20:52 62.01372 86.98717 34037 ft 420 kts 317°
2026-04-27 20:52 62.05823 86.90676 34033 ft 419 kts 317°
2026-04-27 20:53 62.10267 86.82609 34023 ft 419 kts 317°
2026-04-27 20:53 62.14704 86.74526 34028 ft 419 kts 317°
2026-04-27 20:54 62.21356 86.62383 34033 ft 419 kts 317°
2026-04-27 20:55 62.25778 86.54250 34023 ft 419 kts 317°
2026-04-27 20:55 62.30162 86.46141 34017 ft 419 kts 317°
2026-04-27 20:56 62.34596 86.37915 34017 ft 418 kts 317°
2026-04-27 20:56 62.38969 86.29786 34012 ft 418 kts 317°
2026-04-27 20:57 62.43368 86.21582 34012 ft 418 kts 317°
2026-04-27 20:57 62.47759 86.13367 34009 ft 417 kts 317°
2026-04-27 20:58 62.52131 86.05113 34007 ft 417 kts 317°
2026-04-27 20:58 62.56500 85.96845 34008 ft 417 kts 317°
2026-04-27 20:59 62.60862 85.88565 34002 ft 416 kts 317°
2026-04-27 20:59 62.65213 85.80260 33997 ft 416 kts 317°
2026-04-27 21:00 62.69558 85.71932 33992 ft 416 kts 317°
2026-04-27 21:00 62.73926 85.63536 33988 ft 416 kts 317°
2026-04-27 21:01 62.78261 85.55165 33979 ft 416 kts 317°
2026-04-27 21:01 62.82584 85.46777 33976 ft 415 kts 317°
2026-04-27 21:02 62.86902 85.38392 33976 ft 415 kts 317°
2026-04-27 21:02 62.91216 85.29962 33979 ft 415 kts 317°
2026-04-27 21:03 62.95519 85.21507 33979 ft 415 kts 317°
2026-04-27 21:03 62.99815 85.13041 33977 ft 415 kts 317°
2026-04-27 21:04 63.04110 85.04547 33975 ft 415 kts 317°
2026-04-27 21:04 63.08397 84.96038 33974 ft 414 kts 317°
2026-04-27 21:05 63.12669 84.87512 33974 ft 414 kts 317°
2026-04-27 21:05 63.16936 84.78978 33972 ft 413 kts 317°
2026-04-27 21:06 63.20471 84.71861 33971 ft 413 kts 317°
2026-04-27 21:06 63.24586 84.62987 33966 ft 412 kts 308°
2026-04-27 21:07 63.27822 84.52508 33969 ft 411 kts 303°
2026-04-27 21:07 63.31001 84.41933 33962 ft 411 kts 303°
2026-04-27 21:08 63.34177 84.31339 33957 ft 412 kts 303°
2026-04-27 21:08 63.37338 84.20704 33955 ft 412 kts 303°
2026-04-27 21:09 63.40487 84.10036 33955 ft 412 kts 303°
2026-04-27 21:09 63.43627 83.99354 33955 ft 411 kts 303°
2026-04-27 21:10 63.46761 83.88648 33952 ft 411 kts 303°
2026-04-27 21:10 63.49886 83.77925 33959 ft 411 kts 303°
2026-04-27 21:11 63.53004 83.67183 33954 ft 411 kts 303°
2026-04-27 21:11 63.56109 83.56431 33956 ft 411 kts 303°
2026-04-27 21:12 63.59201 83.45633 33959 ft 411 kts 302°
2026-04-27 21:12 63.62288 83.34834 33957 ft 411 kts 302°
2026-04-27 21:13 63.65375 83.24025 33962 ft 411 kts 302°
2026-04-27 21:13 63.68454 83.13195 33964 ft 410 kts 302°
2026-04-27 21:14 63.70994 83.04168 33964 ft 410 kts 302°
2026-04-27 21:15 63.78493 82.77323 33968 ft 410 kts 302°
2026-04-27 21:16 63.83910 82.57879 33964 ft 409 kts 302°
2026-04-27 21:16 63.86936 82.46946 33963 ft 409 kts 302°
2026-04-27 21:17 63.89943 82.35984 33965 ft 409 kts 302°
2026-04-27 21:17 63.92939 82.25003 33962 ft 409 kts 302°
2026-04-27 21:18 63.95932 82.13996 33964 ft 409 kts 301°
2026-04-27 21:18 63.98904 82.02950 33966 ft 411 kts 300°
2026-04-27 21:19 64.01758 81.91289 33981 ft 431 kts 298°
2026-04-27 21:19 64.04613 81.78951 33976 ft 448 kts 298°
2026-04-27 21:20 64.07579 81.66190 33978 ft 459 kts 298°
2026-04-27 21:20 64.09091 81.59759 33978 ft 460 kts 298°
2026-04-27 21:20 64.12125 81.46863 33988 ft 461 kts 298°
2026-04-27 21:21 64.15149 81.33927 33988 ft 460 kts 298°
2026-04-27 21:21 64.18147 81.20965 33985 ft 460 kts 298°
2026-04-27 21:22 64.21140 81.07965 33979 ft 460 kts 298°
2026-04-27 21:22 64.24131 80.94960 33989 ft 460 kts 298°
2026-04-27 21:23 64.27097 80.82026 33996 ft 460 kts 298°
2026-04-27 21:23 64.30067 80.68979 33992 ft 460 kts 297°
2026-04-27 21:24 64.33018 80.55910 33997 ft 460 kts 297°
2026-04-27 21:24 64.35957 80.42806 34003 ft 460 kts 297°
2026-04-27 21:25 64.38883 80.29677 34006 ft 459 kts 297°
2026-04-27 21:25 64.41797 80.16542 34010 ft 459 kts 297°
2026-04-27 21:26 64.44699 80.03385 34009 ft 459 kts 297°
2026-04-27 21:26 64.47586 79.90194 34009 ft 458 kts 297°
2026-04-27 21:27 64.50454 79.76998 34015 ft 458 kts 297°
2026-04-27 21:27 64.53313 79.63786 34008 ft 458 kts 297°
2026-04-27 21:28 64.55676 79.52797 34009 ft 457 kts 297°
2026-04-27 21:28 64.58504 79.39555 34007 ft 457 kts 297°
2026-04-27 21:29 64.61321 79.26302 34016 ft 456 kts 297°
2026-04-27 21:29 64.64128 79.13031 34013 ft 455 kts 296°
2026-04-27 21:30 64.66914 78.99756 34016 ft 456 kts 296°
2026-04-27 21:30 64.69664 78.86571 33998 ft 438 kts 296°
2026-04-27 21:31 64.70966 78.80284 34003 ft 419 kts 296°
2026-04-27 21:31 64.72209 78.74276 34013 ft 406 kts 296°
2026-04-27 21:31 64.74637 78.62453 33920 ft 402 kts 296°
2026-04-27 21:32 64.75833 78.56603 33529 ft 394 kts 296°
2026-04-27 21:32 64.77000 78.50903 33015 ft 382 kts 297°
2026-04-27 21:32 64.78141 78.45360 32376 ft 374 kts 297°
2026-04-27 21:32 64.79250 78.39985 31706 ft 368 kts 297°
2026-04-27 21:33 64.80368 78.34552 31147 ft 360 kts 297°
2026-04-27 21:33 64.81430 78.29365 30869 ft 349 kts 297°
2026-04-27 21:33 64.82463 78.24294 30649 ft 344 kts 297°
2026-04-27 21:33 64.83493 78.19228 30236 ft 343 kts 297°
2026-04-27 21:34 64.84516 78.14168 29746 ft 342 kts 297°
2026-04-27 21:34 64.85528 78.09136 29302 ft 339 kts 298°
2026-04-27 21:34 64.86520 78.04206 28888 ft 336 kts 298°
2026-04-27 21:34 64.87526 77.99206 28467 ft 332 kts 298°
2026-04-27 21:35 64.88493 77.94382 28069 ft 328 kts 298°
2026-04-27 21:35 64.89461 77.89548 27662 ft 325 kts 299°
2026-04-27 21:35 64.90446 77.84800 27267 ft 319 kts 303°
2026-04-27 21:35 64.91719 77.80610 26876 ft 312 kts 314°
2026-04-27 21:36 64.93299 77.77191 26494 ft 306 kts 324°
2026-04-27 21:36 64.95114 77.74631 26099 ft 302 kts 334°
2026-04-27 21:36 64.97028 77.72634 25717 ft 299 kts 335°
2026-04-27 21:36 64.98912 77.70657 25315 ft 295 kts 334°
2026-04-27 21:37 65.00776 77.68689 24918 ft 292 kts 334°
2026-04-27 21:37 65.02617 77.66741 24517 ft 288 kts 334°
2026-04-27 21:37 65.04441 77.64807 24092 ft 285 kts 334°
2026-04-27 21:37 65.06244 77.62894 23686 ft 283 kts 334°
2026-04-27 21:38 65.08029 77.60998 23236 ft 280 kts 334°
2026-04-27 21:38 65.09793 77.59119 22813 ft 276 kts 334°
2026-04-27 21:38 65.11532 77.57264 22428 ft 272 kts 334°
2026-04-27 21:38 65.13246 77.55430 22025 ft 269 kts 334°
2026-04-27 21:39 65.14939 77.53621 21637 ft 266 kts 334°
2026-04-27 21:39 65.16617 77.51832 21250 ft 263 kts 333°
2026-04-27 21:39 65.18280 77.50054 20873 ft 261 kts 333°
2026-04-27 21:39 65.19926 77.48285 20502 ft 259 kts 333°
2026-04-27 21:40 65.21564 77.46527 20125 ft 257 kts 333°
2026-04-27 21:40 65.23189 77.44782 19758 ft 256 kts 333°
2026-04-27 21:40 65.24811 77.43037 19387 ft 255 kts 333°
2026-04-27 21:40 65.26428 77.41295 19022 ft 255 kts 333°
2026-04-27 21:41 65.28044 77.39563 18649 ft 255 kts 333°
2026-04-27 21:41 65.29661 77.37829 18278 ft 255 kts 332°
2026-04-27 21:41 65.31272 77.36090 17877 ft 254 kts 332°
2026-04-27 21:41 65.32881 77.34345 17511 ft 253 kts 332°
2026-04-27 21:42 65.34459 77.32629 17147 ft 252 kts 332°
2026-04-27 21:42 65.36058 77.30899 16791 ft 252 kts 332°
2026-04-27 21:42 65.37654 77.29175 16440 ft 251 kts 332°
2026-04-27 21:42 65.39247 77.27451 16083 ft 251 kts 332°
2026-04-27 21:43 65.40840 77.25723 15730 ft 251 kts 332°
2026-04-27 21:43 65.42429 77.23991 15381 ft 251 kts 332°
2026-04-27 21:43 65.44022 77.22254 15029 ft 251 kts 332°
2026-04-27 21:44 65.49131 77.16652 13906 ft 253 kts 332°
2026-04-27 21:44 65.50757 77.14875 13522 ft 254 kts 332°
2026-04-27 21:44 65.52359 77.13125 13159 ft 252 kts 332°
2026-04-27 21:45 65.53955 77.11375 12793 ft 252 kts 332°
2026-04-27 21:45 65.55545 77.09623 12431 ft 251 kts 332°
2026-04-27 21:45 65.56598 77.08463 12191 ft 251 kts 332°
2026-04-27 21:45 65.58181 77.06717 11827 ft 250 kts 332°
2026-04-27 21:46 65.59759 77.04974 11463 ft 249 kts 332°
2026-04-27 21:46 65.61309 77.03261 11095 ft 240 kts 333°
2026-04-27 21:46 65.63279 77.01092 10638 ft 230 kts 332°
2026-04-27 21:46 65.64258 77.00009 10398 ft 229 kts 332°
2026-04-27 21:47 65.65700 76.98425 10049 ft 227 kts 334°
2026-04-27 21:47 65.67225 76.97390 9681 ft 229 kts 346°
2026-04-27 21:47 65.68799 76.96811 9310 ft 228 kts 346°
2026-04-27 21:47 65.70367 76.96229 8949 ft 227 kts 346°
2026-04-27 21:48 65.71928 76.95649 8589 ft 226 kts 346°
2026-04-27 21:48 65.73477 76.95070 8222 ft 225 kts 346°
2026-04-27 21:48 65.75021 76.94492 7849 ft 223 kts 345°
2026-04-27 21:48 65.76554 76.93920 7514 ft 223 kts 345°
2026-04-27 21:49 65.78085 76.93343 7147 ft 222 kts 345°
2026-04-27 21:49 65.79606 76.92769 6777 ft 221 kts 345°
2026-04-27 21:49 65.81120 76.92199 6411 ft 220 kts 344°
2026-04-27 21:49 65.82628 76.91627 6015 ft 219 kts 344°
2026-04-27 21:50 65.84126 76.91058 5635 ft 217 kts 344°
2026-04-27 21:50 65.85615 76.90490 5259 ft 216 kts 344°
2026-04-27 21:50 65.87077 76.89936 4884 ft 215 kts 344°
2026-04-27 21:50 65.88544 76.89388 4523 ft 205 kts 344°
2026-04-27 21:51 65.89883 76.88898 4468 ft 186 kts 344°
2026-04-27 21:51 65.91158 76.88505 4421 ft 186 kts 350°
2026-04-27 21:51 65.92469 76.88793 4338 ft 193 kts
2026-04-27 21:51 65.93752 76.89747 4251 ft 195 kts
2026-04-27 21:52 65.95006 76.90748 4168 ft 184 kts
2026-04-27 21:52 65.96195 76.91689 4097 ft 174 kts
2026-04-27 21:52 65.97300 76.92560 4014 ft 162 kts
2026-04-27 21:52 65.98332 76.93375 3928 ft 150 kts
2026-04-27 21:53 65.99288 76.94129 3856 ft 139 kts
2026-04-27 21:53 66.00185 76.94312 3708 ft 121 kts 342°
2026-04-27 21:53 66.00958 76.93665 3630 ft 119 kts 324°
2026-04-27 21:53 66.01578 76.92315 3528 ft 121 kts 306°
2026-04-27 21:54 66.01943 76.90413 3393 ft 125 kts 291°
2026-04-27 21:54 66.02211 76.88401 3237 ft 123 kts 292°
2026-04-27 21:54 66.02477 76.86402 3063 ft 123 kts 292°
2026-04-27 21:54 66.02742 76.84408 2894 ft 122 kts 291°
2026-04-27 21:55 66.03003 76.82432 2723 ft 122 kts 291°
2026-04-27 21:55 66.03263 76.80461 2558 ft 121 kts 291°
2026-04-27 21:55 66.03522 76.78503 2383 ft 120 kts 291°
2026-04-27 21:55 66.03780 76.76553 2216 ft 120 kts 291°
2026-04-27 21:56 66.04037 76.74607 2034 ft 119 kts 290°
2026-04-27 21:56 66.04547 76.70737 1699 ft 119 kts 290°
2026-04-27 21:56 66.04801 76.68801 1530 ft 119 kts 289°
2026-04-27 21:57 66.05055 76.66867 1364 ft 119 kts 290°
2026-04-27 21:57 66.05306 76.64948 1183 ft 117 kts 289°
2026-04-27 21:57 66.05556 76.63038 1003 ft 118 kts 289°
2026-04-27 21:57 66.05808 76.61113 825 ft 118 kts 289°
2026-04-27 21:58 66.06060 76.59177 646 ft 119 kts 289°
2026-04-27 21:58 66.06314 76.57233 476 ft 120 kts 289°
2026-04-27 21:58 66.06564 76.55312 316 ft 119 kts 289°
2026-04-27 21:58 66.06809 76.53383 211 ft 107 kts 288°
2026-04-27 21:59 66.06989 76.52073 215 ft 34 kts 296°
2026-04-27 21:59 66.07051 76.52052 220 ft 5 kts 34°
2026-04-27 21:59 66.07177 76.52152 215 ft 18 kts 360°
2026-04-27 21:59 66.07259 76.51966 216 ft 17 kts 271°
2026-04-27 22:00 66.07244 76.51903 222 ft 0 kts 205°
2026-04-27 22:04 66.07223 76.52021 216 ft 9 kts 84°
2026-04-27 22:04 66.07230 76.52211 222 ft 12 kts 75°
2026-04-27 22:04 66.07234 76.52256 219 ft 2 kts 87°
2026-04-27 22:04 66.07233 76.52263 218 ft 0 kts 93°
2026-04-27 22:05 66.07232 76.52265 218 ft 0 kts 101°
2026-04-27 22:05 66.07225 76.52274 218 ft 2 kts 156°
2026-04-27 22:06 66.07198 76.52267 219 ft 6 kts 198°
2026-04-27 22:06 66.07163 76.52250 215 ft 8 kts 184°
2026-04-27 22:06 66.07122 76.52348 219 ft 10 kts 109°
2026-04-27 22:06 66.07109 76.52442 216 ft 5 kts 109°
2026-04-27 22:07 66.07102 76.52487 215 ft 1 kts 109°
2026-04-27 22:07 66.07099 76.52514 214 ft 0 kts 108°
2026-04-27 22:07 66.07095 76.52545 221 ft 4 kts 108°
2026-04-27 22:08 66.07084 76.52630 214 ft 7 kts 104°
2026-04-27 22:08 66.07107 76.52741 216 ft 9 kts 30°
2026-04-27 22:08 66.07136 76.52767 218 ft 0 kts 20°